Weather History for KPNM - May, 2013

Change the Weather History Date:

Monday, May 13, 2013

  Actual Average Record
Temperature  
Mean Temperature 48 °F -  
Max Temperature 71 °F 64 °F - (-1)
Min Temperature 26 °F 41 °F - (-1)
Degree Days  
Heating Degree Days 16    
Moisture  
Dew Point 31 °F    
Average Humidity 52    
Maximum Humidity 86    
Minimum Humidity 26    
Precipitation  
Precipitation 0.02 in - - ()
Sea Level Pressure  
Sea Level Pressure 29.92 in    
Wind  
Wind Speed 5 mph (SE)    
Max Wind Speed 21 mph    
Max Gust Speed 30 mph    
Visibility 10 miles    
Events Rain    
Averages and records for this station are not official NWS values.
T = Trace of Precipitation, MM = Missing Value Source: NWS Daily Summary

Daily Weather History Graph

Daily Weather History Graph

Search for Another Location

Airport or City:

Trip Planner

Search our weather history database for the weather conditions in past years. The results will help you decide how hot, cold, wet, or windy it might be!

Date:

Astronomy

May. 13, 2013 Rise Set
Actual Time 5:45 AM CDT 8:36 PM CDT
Civil Twilight 5:11 AM CDT 9:11 PM CDT
Nautical Twilight 4:27 AM CDT 9:55 PM CDT
Astronomical Twilight 3:36 AM CDT 10:47 PM CDT
Moon 8:31 AM CDT (5/13) 11:46 PM CDT (5/13)
Length of Visible Light 15h 59m
Length of Day
14h 50m
Waxing Crescent, 12% of the Moon is Illuminated
May 13
Waxing Crescent
May 17
First Quarter
May 24
Full
May 31
Last Quarter
Jun 8
New

Hourly Weather History & Observations

Time (CDT) Temp. Windchill Dew Point Humidity Pressure Visibility Wind Dir Wind Speed Gust Speed Precip Events Conditions
12:11 AM 33.8 °F - 24.8 °F 70% 30.11 in 10.0 mi Calm Calm - N/A   Clear
12:32 AM 33.8 °F - 23.0 °F 65% 30.10 in 10.0 mi Calm Calm - N/A   Clear
12:51 AM 32.0 °F - 23.0 °F 69% 30.10 in 10.0 mi Calm Calm - N/A   Clear
1:11 AM 32.0 °F - 21.2 °F 64% 30.10 in 10.0 mi Calm Calm - N/A   Clear
1:32 AM 32.0 °F - 21.2 °F 64% 30.10 in 10.0 mi Calm Calm - N/A   Clear
1:51 AM 30.2 °F - 21.2 °F 69% 30.10 in 10.0 mi Calm Calm - N/A   Clear
2:11 AM 28.4 °F - 21.2 °F 74% 30.09 in 10.0 mi Calm Calm - N/A   Clear
2:32 AM 30.2 °F - 21.2 °F 69% 30.09 in 10.0 mi Calm Calm - N/A   Clear
2:51 AM 30.2 °F - 21.2 °F 69% 30.09 in 10.0 mi Calm Calm - N/A   Clear
3:11 AM 28.4 °F - 23.0 °F 80% 30.09 in 10.0 mi Calm Calm - N/A   Clear
3:32 AM 28.4 °F - 21.2 °F 74% 30.08 in 10.0 mi Calm Calm - N/A   Clear
3:51 AM 28.4 °F - 23.0 °F 80% 30.08 in 10.0 mi Calm Calm - N/A   Clear
4:11 AM 26.6 °F - 21.2 °F 80% 30.07 in 10.0 mi Calm Calm - N/A   Clear
4:32 AM 28.4 °F - 24.8 °F 86% 30.07 in 7.0 mi Calm Calm - N/A   Clear
4:51 AM 26.6 °F - 23.0 °F 86% 30.07 in 10.0 mi Calm Calm - N/A   Clear
5:11 AM 28.4 °F - 23.0 °F 80% 30.08 in 10.0 mi Calm Calm - N/A   Clear
5:32 AM 28.4 °F - 24.8 °F 86% 30.08 in 10.0 mi Calm Calm - N/A   Clear
5:51 AM 28.4 °F 24.6 °F 24.8 °F 86% 30.07 in 10.0 mi East 3.5 mph - N/A   Clear
6:11 AM 33.8 °F 29.6 °F 24.8 °F 70% 30.07 in 10.0 mi ESE 4.6 mph - N/A   Clear
6:32 AM 35.6 °F 31.7 °F 26.6 °F 70% 30.08 in 10.0 mi ESE 4.6 mph - N/A   Clear
6:51 AM 37.4 °F 32.8 °F 26.6 °F 65% 30.08 in 10.0 mi ESE 5.8 mph - N/A   Clear
7:11 AM 37.4 °F 32.8 °F 26.6 °F 65% 30.08 in 10.0 mi ESE 5.8 mph - N/A   Clear
7:32 AM 39.2 °F 34.2 °F 26.6 °F 61% 30.08 in 10.0 mi ESE 6.9 mph - N/A   Clear
7:51 AM 41.0 °F 38.0 °F 26.6 °F 57% 30.08 in 10.0 mi ESE 4.6 mph - N/A   Clear
8:11 AM 44.6 °F 42.2 °F 26.6 °F 49% 30.07 in 10.0 mi ESE 4.6 mph - N/A   Clear
8:32 AM 46.4 °F 41.9 °F 24.8 °F 43% 30.07 in 10.0 mi ESE 9.2 mph - N/A   Clear
8:51 AM 48.2 °F - 24.8 °F 40% 30.06 in 10.0 mi ESE 8.1 mph - N/A   Clear
9:11 AM 50.0 °F - 24.8 °F 37% 30.05 in 10.0 mi SE 8.1 mph - N/A   Clear
9:32 AM 53.6 °F - 23.0 °F 30% 30.03 in 10.0 mi SSE 9.2 mph - N/A   Clear
9:51 AM 53.6 °F - 23.0 °F 30% 30.02 in 10.0 mi SE 9.2 mph - N/A   Clear
10:11 AM 55.4 °F - 23.0 °F 29% 30.01 in 10.0 mi SSE 12.7 mph - N/A   Scattered Clouds
10:32 AM 57.2 °F - 24.8 °F 29% 30.00 in 10.0 mi ESE 12.7 mph - N/A   Clear
10:51 AM 55.4 °F - 21.2 °F 26% 30.00 in 10.0 mi SE 11.5 mph 17.3 mph N/A   Clear
11:11 AM 51.8 °F - 33.8 °F 50% 30.00 in 10.0 mi SSE 8.1 mph - N/A Rain Light Rain
11:32 AM 51.8 °F - 33.8 °F 50% 29.98 in 10.0 mi SE 8.1 mph - N/A   Light Drizzle
11:51 AM 53.6 °F - 32.0 °F 44% 29.97 in 10.0 mi SE 9.2 mph - N/A   Scattered Clouds
12:11 PM 53.6 °F - 32.0 °F 44% 29.95 in 10.0 mi SE 11.5 mph - N/A   Scattered Clouds
12:32 PM 51.8 °F - 35.6 °F 54% 29.95 in 10.0 mi ESE 10.4 mph - 0.02 in Rain Rain
12:51 PM 51.8 °F - 37.4 °F 58% 29.95 in 10.0 mi SE 6.9 mph - 0.02 in Rain Light Rain
1:11 PM 53.6 °F - 37.4 °F 54% 29.93 in 10.0 mi ESE 10.4 mph - N/A   Scattered Clouds
1:31 PM 55.4 °F - 37.4 °F 51% 29.91 in 10.0 mi ESE 13.8 mph 18.4 mph N/A   Scattered Clouds
1:51 PM 57.2 °F - 37.4 °F 48% 29.88 in 10.0 mi ESE 16.1 mph 20.7 mph N/A   Clear
2:11 PM 60.8 °F - 35.6 °F 39% 29.88 in 10.0 mi ESE 17.3 mph 23.0 mph N/A   Clear
2:31 PM 60.8 °F - 35.6 °F 39% 29.87 in 10.0 mi SE 16.1 mph 20.7 mph N/A   Clear
3:31 PM 66.2 °F - 35.6 °F 32% 29.84 in 10.0 mi SE 18.4 mph - N/A   Clear
3:51 PM 66.2 °F - 35.6 °F 32% 29.81 in 10.0 mi SE 20.7 mph 24.2 mph N/A   Clear
4:12 PM 68.0 °F - 35.6 °F 30% 29.80 in - SSE 19.6 mph 24.2 mph N/A   Unknown
4:31 PM 69.8 °F - 35.6 °F 28% 29.80 in 10.0 mi South 17.3 mph 27.6 mph N/A   Clear
4:51 PM 69.8 °F - 35.6 °F 28% 29.79 in 10.0 mi SSE 18.4 mph 23.0 mph N/A   Clear
5:12 PM 69.8 °F - 35.6 °F 28% 29.78 in 10.0 mi SE 20.7 mph 26.5 mph N/A   Clear
5:31 PM 69.8 °F - 37.4 °F 31% 29.77 in 10.0 mi SSE 20.7 mph 29.9 mph N/A   Clear
5:51 PM 71.6 °F - 37.4 °F 29% 29.76 in 10.0 mi SSE 18.4 mph 25.3 mph N/A   Clear
6:31 PM 69.8 °F - 37.4 °F 31% 29.74 in 10.0 mi SE 11.5 mph 16.1 mph N/A   Clear
7:12 PM 68.0 °F - 39.2 °F 35% 29.71 in 10.0 mi SE 12.7 mph 17.3 mph N/A   Clear
7:31 PM 68.0 °F - 39.2 °F 35% 29.70 in 10.0 mi SE 11.5 mph 19.6 mph N/A   Clear
7:51 PM 68.0 °F - 39.2 °F 35% 29.69 in 10.0 mi SE 12.7 mph 16.1 mph N/A   Clear
8:12 PM 66.2 °F - 39.2 °F 37% 29.68 in 10.0 mi SE 10.4 mph 16.1 mph N/A   Clear
8:31 PM 66.2 °F - 39.2 °F 37% 29.67 in 10.0 mi ESE 8.1 mph - N/A   Clear
8:51 PM 64.4 °F - 39.2 °F 40% 29.67 in 10.0 mi ESE 8.1 mph - N/A   Clear
9:12 PM 64.4 °F - 41.0 °F 42% 29.66 in 10.0 mi ESE 8.1 mph - N/A   Clear
9:31 PM 62.6 °F - 41.0 °F 45% 29.65 in 10.0 mi ESE 8.1 mph - N/A   Clear
9:51 PM 62.6 °F - 41.0 °F 45% 29.66 in 10.0 mi ESE 6.9 mph - N/A   Clear
10:12 PM 62.6 °F - 42.8 °F 48% 29.65 in 10.0 mi ESE 6.9 mph - N/A   Clear
10:31 PM 60.8 °F - 42.8 °F 52% 29.65 in 10.0 mi East 3.5 mph - N/A   Clear
10:51 PM 60.8 °F - 42.8 °F 52% 29.65 in 10.0 mi Calm Calm - N/A   Clear
11:12 PM 55.4 °F - 42.8 °F 63% 29.65 in 10.0 mi Calm Calm - N/A   Clear
11:31 PM 51.8 °F - 42.8 °F 71% 29.65 in 10.0 mi ESE 3.5 mph - N/A   Clear
11:52 PM 53.6 °F - 42.8 °F 67% 29.65 in 10.0 mi Calm Calm - N/A   Clear